MMS 2

Last updated on Fri Apr 25 2025 00:02:33 GMT+0000 (Coordinated Universal Time)

1 40483U 15011B 25114.58334491 -.00000391 00000+0 00000+0 0 9999 2 40483 63.2632 356.5256 8786999 158.4175 352.0897 0.28273195 16246
UTC large
Height (km)
Speed (km/s)
/
Latitude / Longitude
Inclination (degrees)
Orbital Period (minutes)
Azimuth
Elevation
Range (km)
Doppler Factor

Next 0 passes for location: London (51.5072 / 0.1276)

Sorry there are no passes over London.